Regional Weather Roundup
Issued by NWS Midland/Odessa, TX

Home | Current Version | Previous Version | Text Only | Print | Product List | Glossary On
Versions: 1 2 3 4 5 6 7 8 9 10 11 12 13 14 15 16 17 18 19 20 21 22 23 24 25 26 27 28 29 30 31 32 33 34 35 36 37 38 39 40 41 42 43 44 45 46 47 48 49 50
000
ASUS44 KMAF 231810
RWRMAF
MIDLAND AREA WEATHER ROUNDUP
NATIONAL WEATHER SERVICE MIDLAND TX
1200 PM CST SUN NOV 23 2014

...IN SOUTHWEST TEXAS AND SOUTHEAST NEW MEXICO...

CITY           SKY/WX    TMP DP  RH WIND       PRES   REMARKS
ALPINE         MOSUNNY   65  29  25 W24G39    29.90R
ANDREWS        FAIR      66  24  19 NW26G39   29.70F
ARTESIA        NOT AVBL
BIG SPRING     SUNNY     69  30  23 W25G35    29.68F
CARLSBAD       SUNNY     68  22  17 W37G45    29.69F
DRYDEN           N/A     76  31  19 W23G32    29.73F
FORT STOCKTON  SUNNY     70  28  21 W25G40    29.75F
GUAD PASS      SUNNY     58  24  27 SW40G54   29.81F
HOBBS          SUNNY     64  25  22 W25G33    29.73F
MARFA          SUNNY     61  27  27 W32G41    29.87S
MIDLAND AIRPK  SUNNY     70  26  19 NW25G35   29.69F
MIDLAND INTL   SUNNY     70  26  19 NW25G32   29.68F
ODESSA         SUNNY     70  22  16 NW23G33   29.70F
PECOS          SUNNY     70  27  19 W39G46    29.74F
PRESIDIO       FAIR      67  33  27 SW9       29.88F
SEMINOLE       SUNNY     65  25  21 W31G38    29.72S
SNYDER         SUNNY     67  32  26 W31G45    29.57F
WINK           SUNNY     71  21  15 W24G31    29.71F
$$
...OTHER STATIONS IN TEXAS...

CITY           SKY/WX    TMP DP  RH WIND       PRES   REMARKS
ABILENE        SUNNY     72  35  25 W24G35    29.53F
AMARILLO       PTSUNNY   53  28  38 N32G46    29.64R
AUSTIN         SUNNY     78  50  37 SW16G22   29.60F
BROWNSVILLE    SUNNY     80  62  54 S8        29.74F
CORPUS CHRISTI SUNNY     74  62  66 SW9       29.69F
DALLAS FTW     MOSUNNY   68  48  48 SW17      29.43F
DEL RIO        SUNNY     70  51  51 CALM      29.68F
EL PASO        MOSUNNY   62  25  24 W28G41    29.90F
HOUSTON INT    SUNNY     73  55  53 SW12G18   29.62F
LUBBOCK        MOSUNNY   66  24  20 NW26G40   29.61R
SAN ANGELO     SUNNY     73  30  20 W23       29.64F
SAN ANTONIO    SUNNY     76  50  40 SW13      29.67F
WACO           SUNNY     72  48  42 SW15G24   29.51F
WICHITA FALLS  NOT AVBL
$$
...OTHER LOCATIONS IN NEW MEXICO...

CITY           SKY/WX    TMP DP  RH WIND       PRES   REMARKS
ALAMAGORDO     MOSUNNY   61  23  23 NW12G18   29.87F
ALBUQUERQUE    PTSUNNY   46  21  37 NW29G39   29.89F WCI  37
CANNON AFB     MOSUNNY   58  23  26 NW20G30   29.67S
CLOVIS         PTSUNNY   57  25  28 N23G29    29.68S
HOLLOMAN AFB   MOSUNNY   61  24  24 NW12      29.86F
ROSWELL        SUNNY     65  23  20 W36G48    29.69S
RUIDOSO        CLOUDY    45  23  42 NW24G37   29.86R WCI  36
SANTA FE       PTSUNNY   44  16  32 W21G35    29.79F WCI  36
TRUTH OR CONSE SUNNY     58  21  24 NW26G38   29.88F
TUCUMCARI      LGT RAIN  48  28  46 NE25G39   29.72R
$$


USA.gov is the U.S. government's official web portal to all federal, state and local government web resources and services.